THOR ABLESTAR DEB, 48811

Orbit data source: Space-Track

THOR ABLESTAR DEB, 48811 is space debris in LEO originally from a launch on Thu, 29 Jun 1961 UTC launched from the Air Force Eastern Test Range (AFETR). Debris objects in space refer to the collection of defunct objects orbiting the Earth. Examples of debris include non-operational satellites, rocket bodies, and fragments generated from explosions, collisions, or faulty payload assembly.

Loading next visibility...
Identifier
48811, 1961-015MP
Orbit
LEO
Country
Flag of USUS
Related business
Manufacturer
Unknown
Mission
Spacecraft
Bus & Motor
Unknown
Mass
Unknown
Launch date (UTC)
1961-06-29 (64 years ago)
Launch vehicle
Unknown
Launch site
Air Force Eastern Test Range (AFETR)
Object type
Payload
Rocket body
Debris
Shape & HBR
Unknown shape, 0.1 m
Radar Cross Section
Small (<0.1 m²)

Expand to show TLE details & history
Last TLE update: 16 hours ago

TLE from 16 hours ago
0 THOR ABLESTAR DEB
1 48811U 61015MP  25297.41768847  .00000449  00000-0  48366-3 0  9992
2 48811  67.0603 193.1115 0106016 316.1665  43.1031 13.79691048600106
Epoch: 2025-10-24T10:01Z
TLE epoch observation values (Epoch: 2025-10-24T10:01:28.283Z)
Latitude
-0.00005°
Longitude
9.68075°
Altitude
910.612 km
Speed
7.425 km/s
True Right ascension
12h 52m 26s
True Declination
0° 00' 00"
Sunlit
Object was in daylight at epoch
Visualization orbit readout
Latitude
Unknown
Longitude
Unknown
Altitude
Unknown
Speed
Unknown
Apparent Right ascension
Unknown
Apparent Declination
Unknown
Sunlit
N/A
Visualization observer readout
Local Sidereal Time
21:30:32
Azimuth
Unknown
Elevation
Unknown
Doppler factor
Unknown
Orbital elements
Apogee altitude
1,041.187 km
Perigee altitude
885.524 km
Semi-major axis
7,341.492 km
Eccentricity
0.0106
Inclination
67.0603°
RAAN
193.1115°
Arg. of periapsis
316.1665°
True anomaly
43.9413°
Mean anomaly
43.1031°
Eccentric anomaly
43.52139°
Mean motion
3.45038 °/min
Orbital period
104.34 mins
BSTAR
0.00048366
Loading maneuver chart data...
Computing Atmospheric mass density...

Documentation

Showing up to 5 results
|